[[{"header":{"parameterUnit":"m.s-1","parameterCategory":1,"la1":30.2992,"la2":30.254,"lo1":-89.0895,"lo2":-89.0443,"dy":0.0025,"dx":0.0025,"nx":19,"ny":19,"refTime":"2026-04-24T09:00:00:Z","depth":0,"parameterNumber":2,"parameterNumberName":"U-component_of_WINDS"},"data":[0,0,0,-0.3457,-0.3454,-0.3271,-0.327,-0.3055,-0.3053,0,0,0,0,0,0,0,0,0,0,0,-0.3525,-0.3524,-0.3457,-0.3453,-0.3271,-0.327,-0.3055,-0.3053,0,0,0,0,0,0,0,0,0,0,0,-0.3525,-0.3524,-0.3523,-0.3453,-0.3271,-0.327,-0.3056,-0.3186,0,0,0,0,0,0,0,0,0,0,-0.336,-0.3436,-0.3524,-0.3523,-0.3452,-0.3272,-0.327,-0.3192,-0.3178,-0.3146,0,-0.3124,0,-0.3086,-0.304,-0.3039,0,0,0,-0.3442,-0.3448,-0.3387,-0.3522,-0.345,-0.3272,-0.335,-0.3184,-0.3168,-0.3127,-0.312,-0.3112,-0.3082,-0.3039,-0.3038,-0.2898,-0.2898,0,0,-0.3452,-0.3498,-0.3398,-0.3377,-0.341,-0.3356,-0.3345,-0.3174,-0.3168,-0.312,-0.3107,-0.3078,-0.3038,-0.3036,-0.2898,-0.2898,0,0,0,-0.3488,-0.3506,-0.3448,-0.3387,-0.3353,-0.3351,-0.3338,-0.3176,-0.3153,-0.3104,-0.3076,-0.3037,-0.3034,-0.2898,-0.2898,-0.2937,0,0,0,-0.3494,-0.3527,-0.3453,-0.348,-0.3357,-0.3263,-0.3344,-0.3165,-0.3145,-0.3077,-0.3036,-0.3032,-0.2898,-0.2898,-0.2936,-0.2947,0,0,0,-0.3532,-0.3531,-0.351,-0.3483,-0.3406,-0.3264,-0.3232,-0.316,-0.3128,-0.3039,-0.3032,-0.2898,-0.2898,-0.2935,-0.2945,-0.2923,0,0,0,-0.3584,-0.3546,-0.3511,-0.3457,-0.3408,-0.3291,-0.3232,-0.3142,-0.3071,-0.3035,-0.2898,-0.2898,-0.2935,-0.2945,-0.2923,-0.2913,-0.2914,0,0,-0.3561,-0.3544,-0.3509,-0.3473,-0.3374,-0.3315,-0.3221,-0.311,-0.3058,-0.2953,-0.2949,-0.2936,-0.2945,-0.2923,-0.2902,-0.2903,0,0,0,-0.3517,-0.3492,-0.3455,-0.3392,-0.3309,-0.3237,-0.3137,-0.3096,-0.3006,-0.3015,-0.2921,-0.2925,-0.291,-0.2903,-0.2904,-0.2887,-0.2897,-0.2897,-0.2897,-0.3548,-0.3486,-0.3423,-0.3339,-0.3278,-0.3176,-0.3119,-0.3046,-0.2999,-0.2979,-0.2947,-0.2942,-0.2935,-0.2935,-0.2919,-0.2937,-0.2937,-0.2937,-0.2937,-0.3508,-0.3462,-0.3403,-0.3321,-0.3255,-0.3184,-0.3084,-0.3053,-0.2976,-0.296,-0.2944,-0.2932,-0.2939,-0.2921,-0.294,-0.2939,-0.2939,-0.2939,-0.2939,-0.3521,-0.3488,-0.3441,-0.3343,-0.3274,-0.3189,-0.3118,-0.306,-0.3004,-0.2988,-0.2947,-0.2947,-0.2937,-0.2973,-0.2973,-0.2973,-0.2973,-0.2973,-0.2973,-0.3553,-0.3498,-0.3447,-0.3357,-0.3309,-0.3237,-0.3135,-0.3085,-0.3014,-0.2976,-0.2976,-0.2931,-0.2952,-0.2958,-0.2973,-0.2973,-0.2973,-0.2973,-0.2973,-0.3532,-0.3528,-0.345,-0.3402,-0.3291,-0.3225,-0.3153,-0.3055,-0.3005,-0.2972,-0.293,-0.2956,-0.2934,-0.2933,-0.2937,-0.2945,-0.2945,-0.2945,-0.2945,-0.3543,-0.3527,-0.3434,-0.3361,-0.3282,-0.3209,-0.312,-0.304,-0.2955,-0.292,-0.291,-0.2912,-0.2914,-0.289,-0.289,-0.2893,-0.2889,-0.2889,-0.2889,-0.3527,-0.3501,-0.3437,-0.3358,-0.3267,-0.319,-0.3104,-0.302,-0.2923,-0.2886,-0.2891,-0.2893,-0.2894,-0.2898,-0.286,-0.2861,-0.2866,0,0]},{"header":{"parameterUnit":"m.s-1","parameterCategory":1,"la1":30.2992,"la2":30.254,"lo1":-89.0895,"lo2":-89.0443,"dy":0.0025,"dx":0.0025,"nx":19,"ny":19,"refTime":"2026-04-24T09:00:00:Z","depth":0,"parameterNumber":3,"parameterNumberName":"V-component_of_WINDS"},"data":[0,0,0,4.8454,4.8456,4.856,4.856,4.87,4.8701,0,0,0,0,0,0,0,0,0,0,0,4.843,4.8431,4.8453,4.8456,4.856,4.856,4.8699,4.8701,0,0,0,0,0,0,0,0,0,0,0,4.8429,4.8431,4.8432,4.8457,4.856,4.856,4.8699,4.8618,0,0,0,0,0,0,0,0,0,0,4.8515,4.8501,4.843,4.8432,4.8457,4.856,4.856,4.8613,4.8623,4.8656,0,4.8691,0,4.8699,4.8711,4.8711,0,0,0,4.845,4.8493,4.8516,4.8433,4.8458,4.856,4.8511,4.8619,4.8629,4.8669,4.8693,4.8698,4.8701,4.8712,4.8713,4.8937,4.8938,0,0,4.8444,4.8451,4.8509,4.8523,4.8511,4.8508,4.8515,4.8625,4.865,4.8693,4.8701,4.8703,4.8713,4.8714,4.8936,4.8937,0,0,0,4.8432,4.8448,4.8467,4.8517,4.8536,4.8511,4.8519,4.8645,4.8651,4.8702,4.8705,4.8714,4.8716,4.8934,4.8936,4.9013,0,0,0,4.8428,4.844,4.8465,4.847,4.8534,4.8592,4.8537,4.8644,4.8656,4.8704,4.8714,4.8717,4.8933,4.8935,4.9007,4.9047,0,0,0,4.8421,4.8439,4.8457,4.847,4.8515,4.859,4.8603,4.8646,4.8658,4.8712,4.8717,4.8932,4.8935,4.9003,4.9039,4.9111,0,0,0,4.8413,4.852,4.8459,4.8578,4.8515,4.8638,4.8602,4.8692,4.8747,4.8715,4.8933,4.8936,4.9001,4.9035,4.9106,4.9173,4.9202,0,0,4.8552,4.8537,4.8607,4.8555,4.8692,4.8621,4.8767,4.8809,4.8805,4.8892,4.8898,4.9009,4.9039,4.911,4.9356,4.9379,0,0,0,4.8653,4.8704,4.8738,4.8794,4.8831,4.8866,4.8885,4.89,4.8976,4.8853,4.9053,4.907,4.9111,4.9143,4.9163,4.9198,4.8951,4.8951,4.895,4.8858,4.8852,4.8968,4.8975,4.9029,4.9049,4.9092,4.9116,4.9089,4.9137,4.9164,4.9315,4.9353,4.9367,4.9404,4.9197,4.9198,4.9198,4.9198,4.9062,4.9134,4.9101,4.9203,4.9195,4.9278,4.9302,4.9281,4.9357,4.9293,4.9329,4.9262,4.9393,4.9425,4.9204,4.9203,4.9202,4.9201,4.9201,4.9198,4.9231,4.9251,4.9333,4.9395,4.9396,4.9473,4.946,4.9449,4.9484,4.9512,4.9511,4.951,4.9498,4.9499,4.9499,4.95,4.95,4.9501,4.9331,4.9351,4.9419,4.947,4.9505,4.955,4.9572,4.9606,4.9639,4.9624,4.9624,4.9595,4.9407,4.9361,4.9509,4.9507,4.9506,4.9505,4.9505,4.9543,4.9494,4.9599,4.9635,4.9694,4.9758,4.9743,4.9812,4.9837,4.9876,4.9839,4.9701,4.9684,4.9668,4.963,4.9839,4.9839,4.9839,4.9839,4.9659,4.965,4.9756,4.9815,4.987,4.9868,4.9985,5.0004,5.0014,5.003,4.9997,4.9945,4.993,4.9922,4.9901,4.9865,5.0129,5.0129,5.013,4.979,4.9786,4.989,4.9904,4.995,4.999,5.01,5.0167,5.0168,5.0141,5.0042,5.003,4.9945,4.9918,4.989,4.9857,4.9792,0,0]}]]